Regional Weather Roundup
Issued by NWS Jackson, KY

Home | Current Version | Previous Version | Text Only | Print | Product List | Glossary Off
Versions: 1 2 3 4 5 6 7 8 9 10 11 12 13 14 15 16 17 18 19 20 21 22 23 24 25 26 27 28 29 30 31 32 33 34 35 36 37 38 39 40 41 42 43 44 45 46 47 48 49 50

000
ASUS43 KJKL 032310
RWRJKL

EAST KENTUCKY HOURLY WEATHER ROUNDUP
NATIONAL WEATHER SERVICE JACKSON KY
600 PM EST TUE MAR 03 2015

NOTE: "FAIR" INDICATES FEW OR NO CLOUDS BELOW 12,000 FEET WITH
NO SIGNIFICANT WEATHER AND/OR OBSTRUCTIONS TO VISIBILITY.

* THESE REPORTS ARE NOT UNDER NWS QUALITY CONTROL AND MAY NOT
  REPORT WEATHER SUCH AS PRECIPITATION AND FOG.

KYZ079-080-083-085-087-088-110-112-115-119-120-040000
...EASTERN KENTUCKY...

CITY           SKY/WX    TMP DP  RH WIND       PRES   REMARKS
JACKSON        CLOUDY    59  53  80 VRB6      29.89F
LONDON         CLOUDY    61  53  75 SW15G21   29.92F
SOMERSET*      CLOUDY    55  54  94 S7        29.92F
MONTICELLO*    CLOUDY    63  58  83 SW14      29.95F
MIDDLESBORO*   FOG       42  42 100 CALM      30.00F VSB<1/4
BLACK MTN*       N/A     46  46 100 SW9         N/A
PIKEVILLE APT* CLOUDY    63  54  72 SW12G18   29.89F
BIG SANDY*     CLOUDY    63  55  76 SW12G24   29.88F
MOREHEAD APT*  CLOUDY    63  55  77 SW20G28   29.84S
$$

KYZ035-036-041-042-044-050-067-078-099-040000
...CENTRAL KENTUCKY...

CITY           SKY/WX    TMP DP  RH WIND       PRES   REMARKS
MT STERLING*   CLOUDY    59  55  88 W15G26    29.83F
FLEMING/MASON* CLOUDY    55  54  94 SW21G31   29.79F
DANVILLE*      CLOUDY    59  55  88 SW17G24   29.86F
RICHMOND*      CLOUDY    59  55  88 S18G24    29.85F
LEXINGTON      CLOUDY    60  56  86 SW18G30   29.82S
FRANKFORT      CLOUDY    61  55  81 SW22G29   29.78F
$$

KYZ091>093-OHZ055-061-077-WVZ005-015-034-035-042-040000
...SOUTHERN OHIO/WEST VIRGINIA...

CITY           SKY/WX    TMP DP  RH WIND       PRES   REMARKS
COVINGTON      LGT RAIN  50  48  93 W10       29.77S FOG
COLUMBUS       LGT RAIN  37  37 100 S5        29.74S VSB 1/4 WCI  34
DAYTON         FOG       43  42  97 SW14      29.75R VSB 1
WILMINGTON     FOG       40  39  97 SW9       29.75R VSB<1/4 WCI  34
HUNTINGTON     CLOUDY    62  54  74 SW14G24   29.80F
CHARLESTON     CLOUDY    62  51  67 SW14      29.83S
PINEVILLE*     CLOUDY    44  43  99 MISG      29.99F
BECKLEY        CLOUDY    47  42  83 S8        29.94F
BLUEFIELD      LGT RAIN  54  48  80 SW12      29.98F
$$

VAZ002-007-008-TNZ017-027-036-066-071-040000
...SOUTHWEST VIRGINIA/EAST TENNESSEE...

CITY           SKY/WX    TMP DP  RH WIND       PRES   REMARKS
WISE*          FOG       46  46 100 SW8       30.00S VSB<1/4
JONESVILLE*    FOG       39  39 100 CALM      30.05S VSB<1/4
ABINGDON*      RAIN      46  42  88 CALM      30.02S
BRISTOL        CLOUDY    49  46  90 N3        30.02S
KNOXVILLE      CLOUDY    49  47  93 CALM      30.03S FOG
OAK RIDGE      CLOUDY    49  48  97 CALM      30.04S FOG
CROSSVILLE     CLOUDY    54  52  93 S9        30.00F
NASHVILLE      CLOUDY    62  58  86 S14       29.94S
$$

...KEY TO REMARKS...
VSB - VISIBILITY IN MILES
WCI - WIND CHILL INDEX
HX  - HEAT INDEX

$$



USA.gov is the U.S. government's official web portal to all federal, state and local government web resources and services.